sat.trackr.live / text

‹ back to catalog

MONITOR-2 (RS39S)

NORAD 57184 · 2023-091U

PAYLOAD ACTIVE UNKNOWN

§ Identity

Operator
Country
CIS
Launch date
2023-06-27
Launch site
VOSTO
Launch vehicle
Mass (kg)
RCS (m²)

Purposes: comms

External: N2YO · Heavens-Above · Gunter

§ Orbital elements

Epoch: 2026-05-25T04:30:00.394848Z

Period
94.82 min
Inclination
97.5087°
Eccentricity
0.0011195
Mean motion
15.18658610 rev/d
Perigee alt
502.2 km
Apogee alt
517.6 km
Semi-major
6,888.0 km
B*
2.3247e-4
RAAN
203.6215°
Arg perigee
184.4474°
Mean anomaly
175.6663°
Rev number
16,046

§ Raw data

MONITOR-2 (RS39S)1 57184U 23091U   26145.18750457  .00004755  00000+0  23247-3 0  99962 57184  97.5087 203.6215 0011195 184.4474 175.6663 15.18658610160463

JSON: /api/v1/satellites/57184 · /tle

For live sub-satellite position, see the globe view (requires WebGL).

§ Visibility from observer

Set your observer location to see the next 7 days of passes ≥ 10°. The values pass through the URL so the page stays shareable.

No JS? Fill the form by hand. The geolocation button needs JavaScript.

§ Radio — SatNOGS DB

ModeDescriptionDownlinkUplink
AFSK Mode U - AFSK 1k2 435.650 MHz
DOKA Mode U - DOKA 9k6 435.915 MHz
DOKA Mode U - DOKA 9k6 435.000 MHz
FSK Mode U - FSK9k6 435.860 MHz
AFSK Mode U AFSK 1k2 435.815 MHz

5 transmitters · refreshed weekly from db.satnogs.org